Weather History for Ft Riley, KS

Change the Weather History Date:

Saturday, April 5, 2014

  Actual Average (KMHK) Record (KMHK)
Temperature  
Mean Temperature 48 °F 51 °F  
Max Temperature 66 °F 64 °F 82 °F (2006)
Min Temperature 29 °F 38 °F 26 °F (2011)
Degree Days  
Heating Degree Days 18 15  
Month to date heating degree days 77  
Since 1 July heating degree days 4913  
Cooling Degree Days 0 0  
Month to date cooling degree days 0  
Year to date cooling degree days 2  
Moisture  
Dew Point 30 °F    
Average Humidity 54    
Maximum Humidity 100    
Minimum Humidity 24    
Precipitation  
Precipitation 0.00 in 0.05 in 1.80 in (1999)
Month to date precipitation 0.25  
Year to date precipitation 4.17  
Sea Level Pressure  
Sea Level Pressure 30.08 in    
Wind  
Wind Speed 7 mph (SE)    
Max Wind Speed 16 mph    
Max Gust Speed 23 mph    
Visibility 9 miles    
Events      
T = Trace of Precipitation, MM = Missing Value Source: NWS Daily Summary

Daily Weather History Graph

Daily Weather History Graph

Search for Another Location

Airport:

Trip Planner

Search our weather history database for the weather conditions in past years. The results will help you decide how hot, cold, wet, or windy it might be!

Date:

Astronomy

Apr. 05, 2014 Rise Set
Actual Time 7:05 AM CDT 7:54 PM CDT
Civil Twilight 6:38 AM CDT 8:21 PM CDT
Nautical Twilight 6:06 AM CDT 8:53 PM CDT
Astronomical Twilight 5:33 AM CDT 9:27 PM CDT
Moon 11:15 AM CDT (4/5) 1:03 AM CDT (4/5)
Length of Visible Light 13h 43m
Length of Day
12h 49m
Waxing Crescent, 34% of the Moon is Illuminated
Apr 5
Waxing Crescent
Apr 7
First Quarter
Apr 15
Full
Apr 22
Last Quarter
Apr 29
New

Hourly Weather History & Observations

Time (CDT) Temp. Windchill Dew Point Humidity Pressure Visibility Wind Dir Wind Speed Gust Speed Precip Events Conditions
12:58 AM 32.4 °F 27.9 °F 31.8 °F 98% 30.16 in 10.0 mi NNE 4.6 mph - N/A   Clear
1:58 AM 31.3 °F - 30.9 °F 99% 30.16 in 10.0 mi NNW 2.3 mph - N/A   Clear
2:58 AM 29.1 °F 24.1 °F 29.1 °F 100% 30.15 in 10.0 mi North 4.6 mph - N/A   Clear
3:58 AM 30.7 °F - 30.7 °F 100% 30.15 in 10.0 mi Variable 2.3 mph - N/A   Clear
4:58 AM 31.1 °F - 30.7 °F 99% 30.16 in 10.0 mi Calm Calm - N/A   Clear
5:58 AM 32.2 °F 26.7 °F 31.1 °F 96% 30.16 in 10.0 mi ESE 5.8 mph - N/A   Clear
6:58 AM 34.2 °F - 30.2 °F 85% 30.17 in 10.0 mi SW 2.3 mph - N/A   Clear
7:58 AM 34.5 °F - 31.5 °F 89% 30.17 in 10.0 mi Variable 2.3 mph - N/A   Clear
8:58 AM 40.1 °F 36.1 °F 33.6 °F 78% 30.17 in 10.0 mi SE 5.8 mph - N/A   Clear
9:58 AM 47.1 °F - 33.3 °F 59% 30.14 in 10.0 mi SSE 9.2 mph - N/A   Clear
10:58 AM 52.0 °F - 31.1 °F 45% 30.14 in 10.0 mi South 6.9 mph - N/A   Clear
11:58 AM 55.9 °F - 29.8 °F 37% 30.13 in 10.0 mi South 11.5 mph 20.7 mph N/A   Clear
12:58 PM 59.5 °F - 28.6 °F 31% 30.11 in 10.0 mi South 11.5 mph - N/A   Clear
1:46 PM 62.6 °F - 28.4 °F 27% 30.07 in 10.0 mi SSE 12.7 mph 18.4 mph N/A   Clear
1:58 PM 62.4 °F - 28.6 °F 28% 30.06 in 10.0 mi South 11.5 mph 16.1 mph N/A   Clear
2:58 PM 64.6 °F - 27.9 °F 25% 30.04 in 10.0 mi SSE 10.4 mph 18.4 mph N/A   Clear
3:34 PM 66.2 °F - 28.4 °F 24% 30.00 in 10.0 mi South 13.8 mph 21.9 mph N/A   Clear
3:58 PM 65.7 °F - 28.0 °F 24% 29.98 in 10.0 mi SE 15.0 mph - N/A   Partly Cloudy
4:58 PM 64.4 °F - 30.2 °F 28% 29.98 in 3.0 mi SE 16.1 mph 23.0 mph N/A   Haze
5:08 PM 64.4 °F - 28.4 °F 26% 29.97 in 3.0 mi SE 16.1 mph 23.0 mph N/A   Haze
5:58 PM 62.6 °F - 28.4 °F 27% 29.98 in 5.0 mi SE 15.0 mph - N/A   Haze
6:58 PM 61.0 °F - 27.9 °F 28% 29.98 in 7.0 mi SSE 13.8 mph - N/A   Clear
7:58 PM 57.6 °F - 27.9 °F 32% 29.99 in 9.0 mi SE 5.8 mph - N/A   Clear
8:58 PM 54.3 °F - 30.4 °F 40% 29.99 in 10.0 mi SE 6.9 mph - N/A   Clear
9:58 PM 53.1 °F - 31.1 °F 43% 30.01 in 10.0 mi SE 4.6 mph - N/A   Mostly Cloudy
10:58 PM 52.3 °F - 30.4 °F 43% 30.01 in 10.0 mi ESE 3.5 mph - N/A   Overcast
11:58 PM 51.8 °F - 30.9 °F 45% 30.01 in 10.0 mi Variable 3.5 mph - N/A   Clear